Flag for U.S.A. Weather past 2 weeks in Antioch, California, U.S.A.

Now
55 °F

Clear.


Feels Like: 54 °F
Forecast: 53 / 72 °F
Wind: 6 mph from Southwest

Location: Buchanan Field

Current Time: Mar 31, 2015 at 4:28:21 AM

Latest Report: Mar 31, 2015 at 3:53 AM


Visibility: 10 mi

Pressure: 30.01 "Hg

Humidity: 69%

Dew point: 45 °F

Location of AntiochLocation

Historic Weather in Antioch — Graph

°F

Antioch temperature yesterday

Maximum temperature yesterday: 81 °F (at 2:53 PM)
Minimum temperature yesterday: 50 °F (at 6:53 AM)
Average temperature yesterday: 63 °F

Past Weeks' High & Low Weather Summary

 TemperatureHumidityPressure
High82 °F (Mar 29, 1:53 PM)93% (Mar 23, 5:53 AM)30.27 "Hg (Mar 23, 5:53 AM)
Low48 °F (Mar 19, 6:53 AM)20% (Mar 19, 12:53 PM)29.92 "Hg (Mar 19, 6:53 PM)
Average62 °F60%30.07 "Hg
* Reported Mar 16 2:53 AM — Mar 31 2:53 AM, Antioch, Weather by CustomWeather, © 2015

Note: Actual official high and low records may vary slightly from our data, if they occured in-between our weather recording intervals... More about our weather records

Advertising

Antioch weather history for previous 24 hours

 ConditionsComfort  
Time TempWeatherWind HumidityBarometerVisibility
2:53 AM
Tue, Mar 31
56 °FClear.10 mph67%30.01 "Hg10 mi
1:53 AM57 °FClear.12 mph62%30.02 "Hg10 mi
12:53 AM58 °FClear.12 mph58%30.01 "Hg10 mi
11:53 PM
Mon, Mar 30
58 °FClear.13 mph58%30.01 "Hg10 mi
10:53 PM58 °FClear.8 mph65%30.00 "Hg10 mi
9:53 PM59 °FPassing clouds.14 mph62%30.01 "Hg10 mi
8:53 PM59 °FPassing clouds.15 mph64%29.99 "Hg10 mi
7:53 PM60 °FPartly sunny.13 mph65%29.97 "Hg10 mi
6:53 PM65 °FPartly sunny.13 mph56%29.96 "Hg10 mi
5:53 PM70 °FSunny.13 mph38%29.95 "Hg10 mi
4:53 PM74 °FSunny.13 mph37%29.94 "Hg10 mi
3:53 PM77 °FSunny.14 mph44%29.94 "Hg10 mi
2:53 PM81 °FPartly sunny.10 mph33%29.95 "Hg10 mi
1:53 PM77 °FSunny.12 mph42%29.97 "Hg10 mi
12:53 PM76 °FSunny.7 mph47%29.98 "Hg10 mi
11:53 AM71 °FSunny.7 mph55%30.00 "Hg10 mi
10:53 AM69 °FSunny.7 mph59%30.01 "Hg10 mi
9:53 AM65 °FSunny.3 mph63%30.01 "Hg9 mi
8:53 AM60 °FSunny.3 mph52%29.99 "Hg10 mi
7:53 AM54 °FClear.6 mph67%29.98 "Hg10 mi
6:53 AM50 °FClear.No wind77%29.98 "Hg10 mi
5:53 AM53 °FClear.No wind66%29.96 "Hg10 mi
4:53 AM53 °FClear.3 mph66%29.96 "Hg10 mi
Weather by CustomWeather, © 2015

See weather overviewHow to use our weather pages